DW9214 Weather Reports


time (UTC)temp
C
wind
direction
speed
KPH
gust
KPH
rain 1hr
cm
rain 24hr
cm
rain mn
cm
humidity
%
barometer
mb
20260906100359 22 20 1.6 3.2 0.00 0.18 0.00 97 1012.9
20260906100158 22 349 1.6 3.2 0.00 0.18 0.00 97 1013.0
20260906095758 22 38 1.6 4.8 0.00 0.18 0.00 97 1012.8
20260906095600 22 27 1.6 4.8 0.00 0.18 0.00 97 1012.8
20260906095358 22 6 1.6 4.8 0.00 0.18 0.00 97 1012.8
20260906095159 22 6 1.6 4.8 0.00 0.18 0.00 97 1012.8
20260906094958 22 4 1.6 4.8 0.00 0.18 0.00 97 1012.7
20260906094800 22 347 1.6 6.4 0.00 0.18 0.00 97 1012.7
20260906094558 22 351 1.6 6.4 0.00 0.18 0.00 97 1012.6
20260906094359 22 330 1.6 6.4 0.00 0.18 0.00 97 1012.6
20260906094159 22 18 0.0 6.4 0.00 0.18 0.00 97 1012.5
20260906093959 22 357 1.6 3.2 0.00 0.18 0.00 97 1012.5
20260906093758 22 356 0.0 3.2 0.00 0.18 0.00 97 1012.5
20260906093601 22 16 1.6 3.2 0.00 0.18 0.00 96 1012.5
20260906093358 22 20 1.6 4.8 0.00 0.18 0.00 96 1012.5
20260906093159 22 20 1.6 4.8 0.00 0.18 0.00 96 1012.4
20260906092959 22 20 1.6 6.4 0.00 0.18 0.00 96 1012.4
20260906092558 22 24 1.6 6.4 0.00 0.18 0.00 96 1012.3
20260906092158 22 354 1.6 4.8 0.00 0.18 0.00 96 1012.3
20260906091959 22 13 1.6 4.8 0.00 0.18 0.00 96 1012.4
20260906091758 22 8 1.6 4.8 0.00 0.18 0.00 96 1012.3
20260906091559 22 18 1.6 6.4 0.00 0.18 0.00 96 1012.4
20260906091358 22 352 1.6 6.4 0.00 0.18 0.00 96 1012.3
20260906091159 22 336 1.6 6.4 0.00 0.18 0.00 96 1012.3
20260906090958 22 4 3.2 6.4 0.00 0.18 0.00 96 1012.3
20260906090759 22 27 1.6 6.4 0.00 0.18 0.00 96 1012.3
20260906090559 22 36 1.6 4.8 0.00 0.18 0.00 96 1012.3
20260906090359 22 19 1.6 4.8 0.00 0.18 0.00 96 1012.3
20260906090002 22 359 1.6 4.8 0.00 0.18 0.00 96 1012.3
20260906085759 22 4 1.6 4.8 0.00 0.18 0.00 96 1012.2
20260906085559 22 356 3.2 6.4 0.00 0.18 0.00 96 1012.3
20260906085358 22 17 3.2 6.4 0.00 0.18 0.00 96 1012.3
20260906085200 22 355 3.2 6.4 0.00 0.18 0.00 96 1012.3
20260906084958 22 6 3.2 6.4 0.00 0.18 0.00 96 1012.2
20260906084800 22 34 3.2 6.4 0.00 0.18 0.00 96 1012.2
20260906084558 22 35 4.8 6.4 0.00 0.18 0.00 96 1012.2
20260906084359 22 27 4.8 11.3 0.00 0.18 0.00 96 1012.3
20260906084158 22 49 4.8 11.3 0.00 0.18 0.00 96 1012.3
20260906083959 22 42 4.8 11.3 0.00 0.18 0.00 96 1012.4
20260906083800 22 15 4.8 11.3 0.00 0.18 0.00 96 1012.4
20260906083559 22 13 4.8 11.3 0.00 0.18 0.00 96 1012.4
20260906083358 22 7 4.8 9.7 0.00 0.18 0.00 96 1012.3
20260906083159 22 24 4.8 9.7 0.00 0.18 0.00 96 1012.3
20260906082959 22 32 3.2 9.7 0.00 0.18 0.00 97 1012.2
20260906082759 22 46 3.2 9.7 0.00 0.18 0.00 97 1012.3
20260906082559 22 344 3.2 9.7 0.00 0.18 0.00 97 1012.3
20260906082359 22 6 1.6 8.0 0.00 0.18 0.00 97 1012.3
20260906082158 22 34 1.6 8.0 0.00 0.18 0.00 97 1012.3
20260906081959 22 34 3.2 8.0 0.00 0.18 0.00 97 1012.3
20260906081758 22 5 3.2 8.0 0.00 0.18 0.00 97 1012.3
20260906081559 22 20 3.2 8.0 0.00 0.18 0.00 97 1012.3
20260906081358 22 49 3.2 8.0 0.00 0.18 0.00 97 1012.3
20260906081159 22 39 3.2 8.0 0.00 0.18 0.00 98 1012.3
20260906080959 22 39 3.2 8.0 0.00 0.18 0.00 98 1012.2
20260906080759 22 60 3.2 8.0 0.00 0.18 0.00 98 1012.3
20260906080558 22 43 3.2 8.0 0.00 0.18 0.00 98 1012.3
20260906080359 22 17 1.6 6.4 0.00 0.18 0.00 98 1012.3
20260906080158 22 39 1.6 3.2 0.00 0.18 0.00 98 1012.3
20260906080001 22 38 0.0 3.2 0.00 0.18 0.00 98 1012.2
20260906075758 22 41 0.0 3.2 0.00 0.18 0.00 98 1012.2
20260906075559 22 39 0.0 1.6 0.00 0.18 0.00 98 1012.2
20260906075358 22 39 0.0 1.6 0.00 0.18 0.00 98 1012.2
20260906075200 22 41 1.6 3.2 0.00 0.18 0.00 98 1012.1
20260906074958 22 41 1.6 3.2 0.00 0.18 0.00 98 1012.1
20260906074800 22 41 1.6 3.2 0.00 0.18 0.00 98 1012.2
20260906074558 22 41 1.6 4.8 0.00 0.18 0.00 98 1012.2
20260906074358 22 41 1.6 4.8 0.00 0.18 0.00 98 1012.2
20260906074158 22 41 1.6 4.8 0.00 0.18 0.00 98 1012.2
20260906073959 22 26 1.6 4.8 0.00 0.18 0.00 99 1012.1
20260906073758 22 16 1.6 4.8 0.00 0.18 0.00 99 1012.1
20260906073558 22 355 1.6 4.8 0.00 0.18 0.00 99 1012.2
20260906073358 22 353 1.6 4.8 0.00 0.18 0.00 99 1012.2
20260906073158 22 340 1.6 6.4 0.00 0.18 0.00 99 1012.1
20260906072959 22 27 1.6 6.4 0.00 0.18 0.00 99 1012.1
20260906072758 22 32 1.6 6.4 0.00 0.18 0.00 99 1012.1
20260906072558 22 343 0.0 6.4 0.00 0.18 0.00 99 1012.1
20260906072358 22 338 0.0 3.2 0.00 0.18 0.00 99 1012.1
20260906072159 22 358 0.0 0.0 0.00 0.18 0.00 99 1012.1
20260906071958 22 18 0.0 0.0 0.00 0.18 0.00 99 1012.1
20260906071759 22 18 0.0 0.0 0.00 0.18 0.00 99 1012.1
20260906071358 22 18 0.0 1.6 0.00 0.18 0.00 99 1012.1
20260906071158 22 18 1.6 3.2 0.00 0.18 0.00 99 1012.1
20260906070959 22 17 1.6 3.2 0.00 0.18 0.00 99 1012.1
20260906070758 22 17 1.6 4.8 0.00 0.18 0.00 99 1012.1
20260906070558 22 18 1.6 4.8 0.00 0.18 0.00 99 1012.2
20260906070358 22 32 1.6 4.8 0.00 0.18 0.00 99 1012.2
20260906070159 22 37 1.6 4.8 0.00 0.18 0.00 99 1012.2
20260906070000 22 37 0.0 4.8 0.00 0.18 0.00 99 1012.2
20260906065759 23 11 0.0 0.0 0.00 0.18 0.00 99 1012.3
20260906065558 23 354 0.0 3.2 0.00 0.18 0.00 99 1012.3
20260906065359 23 354 0.0 3.2 0.00 0.18 0.00 99 1012.3
20260906065200 23 354 0.0 3.2 0.00 0.18 0.00 99 1012.3
20260906065000 23 354 0.0 3.2 0.00 0.18 0.00 100 1012.3
20260906064758 23 8 0.0 0.0 0.00 0.18 0.00 99 1012.3
20260906064358 23 13 0.0 0.0 0.00 0.18 0.00 99 1012.4
20260906064159 23 13 0.0 0.0 0.00 0.18 0.00 99 1012.4
20260906063959 23 13 0.0 0.0 0.00 0.18 0.00 99 1012.4
20260906063759 23 13 0.0 0.0 0.00 0.18 0.00 99 1012.5
20260906063558 23 13 0.0 0.0 0.00 0.18 0.00 99 1012.5
20260906063359 23 14 0.0 0.0 0.00 0.18 0.00 99 1012.6
20260906063158 23 251 0.0 0.0 0.00 0.18 0.00 99 1012.6
20260906062959 23 251 0.0 0.0 0.00 0.18 0.00 99 1012.7
20260906062758 23 251 0.0 1.6 0.00 0.18 0.00 99 1012.8
20260906062559 23 251 0.0 1.6 0.00 0.18 0.00 99 1012.7
20260906062358 23 251 0.0 1.6 0.00 0.18 0.00 99 1012.8
20260906062159 23 251 1.6 1.6 0.00 0.18 0.00 99 1012.8
20260906061958 23 251 1.6 4.8 0.00 0.18 0.00 99 1012.8
20260906061759 23 266 1.6 4.8 0.00 0.18 0.00 99 1012.8
20260906061558 23 9 3.2 8.0 0.00 0.18 0.00 100 1012.8
20260906061359 23 9 3.2 8.0 0.00 0.18 0.00 100 1012.7
20260906061200 23 20 3.2 8.0 0.00 0.18 0.00 100 1012.8
20260906060959 23 319 1.6 8.0 0.00 0.18 0.00 100 1012.8
20260906060358 23 128 0.0 0.0 0.00 0.18 0.00 99 1012.6
20260906060159 23 213 0.0 0.0 0.00 0.18 0.00 99 1012.6
20260906060001 23 213 0.0 0.0 0.00 0.18 0.00 99 1012.5
20260906055758 23 213 0.0 0.0 0.00 0.18 0.00 99 1012.5
20260906055558 23 213 0.0 0.0 0.00 0.18 0.00 99 1012.5
20260906055358 23 213 0.0 0.0 0.00 0.18 0.00 98 1012.5
20260906055158 23 213 0.0 0.0 0.00 0.18 0.00 98 1012.5
20260906054958 23 213 0.0 0.0 0.00 0.18 0.00 99 1012.5
20260906054758 23 213 0.0 0.0 0.00 0.18 0.00 99 1012.5
20260906054558 23 213 0.0 0.0 0.00 0.18 0.00 99 1012.5
20260906054358 23 213 0.0 0.0 0.00 0.18 0.00 99 1012.5
20260906054159 23 213 0.0 0.0 0.00 0.18 0.00 99 1012.4
20260906053959 23 213 0.0 0.0 0.00 0.18 0.00 99 1012.4
20260906053759 23 213 0.0 0.0 0.00 0.18 0.00 98 1012.4
20260906053558 23 213 0.0 0.0 0.00 0.18 0.00 98 1012.4
20260906053359 23 213 0.0 0.0 0.00 0.18 0.00 98 1012.4
20260906053158 23 213 0.0 0.0 0.00 0.18 0.00 99 1012.4
20260906052959 23 213 0.0 0.0 0.00 0.18 0.00 99 1012.4
20260906052758 23 213 0.0 0.0 0.00 0.18 0.00 99 1012.4
20260906052358 23 213 0.0 0.0 0.00 0.18 0.00 98 1012.5
20260906052159 23 213 0.0 0.0 0.00 0.18 0.00 98 1012.6
20260906051958 23 213 0.0 0.0 0.00 0.18 0.00 98 1012.6
20260906051759 23 213 0.0 0.0 0.00 0.18 0.00 98 1012.6
20260906051558 23 213 0.0 0.0 0.00 0.18 0.00 98 1012.6
20260906051359 23 213 0.0 0.0 0.00 0.18 0.00 98 1012.6
20260906050959 23 213 0.0 0.0 0.00 0.18 0.00 98 1012.6
20260906050758 23 255 0.0 0.0 0.00 0.18 0.00 99 1012.6
20260906050559 23 256 0.0 0.0 0.00 0.18 0.00 99 1012.6
20260906050358 23 256 0.0 0.0 0.00 0.18 0.00 99 1012.6
20260906050159 23 248 0.0 0.0 0.00 0.18 0.00 99 1012.6
20260906050000 23 246 0.0 0.0 0.00 0.18 0.00 98 1012.5
20260906045758 23 246 0.0 0.0 0.00 0.18 0.00 98 1012.6
20260906045558 23 237 0.0 0.0 0.00 0.18 0.00 98 1012.5
20260906045358 23 39 0.0 0.0 0.00 0.18 0.00 98 1012.5
20260906045200 23 39 0.0 0.0 0.00 0.18 0.00 98 1012.5
20260906045000 23 38 0.0 0.0 0.00 0.18 0.00 98 1012.5
20260906044800 23 38 0.0 0.0 0.00 0.18 0.00 98 1012.5
20260906044600 23 38 0.0 0.0 0.00 0.18 0.00 98 1012.4
20260906044400 23 38 0.0 0.0 0.00 0.18 0.00 98 1012.4
20260906044200 23 38 0.0 0.0 0.00 0.18 0.00 98 1012.4
20260906043959 23 38 0.0 0.0 0.00 0.18 0.00 98 1012.4
20260906043601 23 39 0.0 0.0 0.00 0.18 0.00 98 1012.4
20260906043400 23 39 0.0 0.0 0.00 0.18 0.00 98 1012.4
20260906042800 24 38 0.0 0.0 0.00 0.18 0.00 98 1012.3
20260906042600 24 38 0.0 0.0 0.00 0.18 0.00 98 1012.3
20260906042400 24 38 0.0 0.0 0.00 0.18 0.00 98 1012.2
20260906042200 24 38 0.0 0.0 0.00 0.18 0.00 98 1012.1
20260906042000 24 38 0.0 0.0 0.00 0.18 0.00 98 1012.1
20260906041601 24 39 0.0 0.0 0.00 0.18 0.00 98 1012.1
20260906041400 24 38 0.0 0.0 0.00 0.18 0.00 98 1012.2
20260906041201 24 39 0.0 0.0 0.00 0.18 0.00 98 1012.2
20260906040959 24 39 0.0 0.0 0.00 0.18 0.00 97 1012.2
20260906040801 24 38 0.0 0.0 0.00 0.18 0.00 97 1012.2
20260906040600 24 38 0.0 0.0 0.00 0.18 0.00 97 1012.2
20260906040400 24 38 0.0 0.0 0.00 0.18 0.00 97 1012.2
20260906040200 24 39 0.0 0.0 0.00 0.18 0.00 97 1012.1
20260906040006 24 38 0.0 0.0 0.00 0.18 0.00 97 1012.0
20260906035800 24 38 0.0 0.0 0.00 0.18 0.18 97 1012.0
20260906035400 24 38 0.0 0.0 0.00 0.18 0.18 97 1012.0
20260906035002 24 38 0.0 0.0 0.00 0.18 0.18 96 1012.0
20260906034801 24 38 0.0 0.0 0.00 0.18 0.18 97 1012.0
20260906034200 25 39 0.0 0.0 0.00 0.18 0.18 96 1012.1
20260906034003 25 39 0.0 0.0 0.00 0.18 0.18 96 1012.1
20260906033800 25 39 0.0 0.0 0.00 0.18 0.18 96 1012.1
20260906033601 25 39 0.0 0.0 0.00 0.18 0.18 96 1012.1
20260906033400 25 39 0.0 0.0 0.00 0.18 0.18 96 1012.1
20260906033201 25 39 0.0 0.0 0.00 0.18 0.18 96 1012.1
20260906033002 25 283 0.0 0.0 0.00 0.18 0.18 97 1012.0
20260906032801 25 284 0.0 0.0 0.00 0.18 0.18 97 1012.0
20260906032600 25 284 0.0 0.0 0.00 0.18 0.18 97 1012.1
20260906032401 25 281 0.0 0.0 0.00 0.18 0.18 96 1012.1
20260906032200 25 201 0.0 0.0 0.00 0.18 0.18 96 1012.1
20260906032002 25 200 0.0 0.0 0.00 0.18 0.18 96 1012.2
20260906031800 25 200 0.0 0.0 0.00 0.18 0.18 96 1012.2
20260906031601 25 200 0.0 0.0 0.00 0.18 0.18 96 1012.2
20260906031002 25 153 0.0 0.0 0.00 0.18 0.18 96 1012.2
20260906030801 25 191 0.0 0.0 0.00 0.18 0.18 96 1012.2
20260906030600 25 298 0.0 0.0 0.00 0.18 0.18 96 1012.2
20260906030401 25 298 0.0 0.0 0.00 0.18 0.18 96 1012.2
20260906030200 25 298 0.0 0.0 0.00 0.18 0.18 96 1012.2
20260906030004 25 298 0.0 0.0 0.00 0.18 0.18 96 1012.1
20260906025600 25 298 0.0 0.0 0.00 0.18 0.18 96 1012.2
20260906025400 25 298 0.0 0.0 0.00 0.18 0.18 96 1012.3
20260906025200 25 298 0.0 0.0 0.00 0.18 0.18 96 1012.3
20260906025000 25 42 0.0 0.0 0.00 0.18 0.18 96 1012.2
20260906024801 25 43 0.0 0.0 0.00 0.18 0.18 96 1012.2
20260906024601 24 43 0.0 0.0 0.00 0.18 0.18 96 1012.2
20260906024200 25 297 0.0 0.0 0.00 0.18 0.18 95 1012.2
20260906024001 25 276 0.0 0.0 0.00 0.18 0.18 95 1012.1
20260906023800 25 276 0.0 0.0 0.00 0.18 0.18 95 1012.0
20260906023400 25 276 0.0 0.0 0.00 0.18 0.18 95 1012.0
20260906023201 25 276 0.0 0.0 0.00 0.18 0.18 95 1012.0
20260906023001 25 276 0.0 0.0 0.00 0.18 0.18 95 1012.0
20260906022801 25 276 0.0 0.0 0.00 0.18 0.18 95 1012.1
20260906022600 25 276 0.0 0.0 0.00 0.18 0.18 95 1012.0
20260906022401 25 276 0.0 0.0 0.00 0.18 0.18 94 1012.0
20260906022200 25 276 0.0 0.0 0.00 0.18 0.18 94 1012.0
20260906022001 25 276 0.0 0.0 0.00 0.18 0.18 95 1012.0
20260906021800 25 276 0.0 0.0 0.00 0.18 0.18 94 1012.0
20260906021600 25 276 0.0 0.0 0.00 0.18 0.18 94 1012.0
20260906021400 25 276 0.0 0.0 0.00 0.18 0.18 94 1011.9
20260906021201 25 276 0.0 0.0 0.00 0.18 0.18 93 1011.9
20260906021000 25 276 0.0 0.0 0.00 0.18 0.18 93 1011.8
20260906020801 25 276 0.0 0.0 0.00 0.18 0.18 93 1011.8
20260906020600 25 276 0.0 0.0 0.00 0.18 0.18 93 1011.7
20260906020401 25 276 0.0 0.0 0.00 0.18 0.18 93 1011.7
20260906020003 25 276 0.0 0.0 0.00 0.18 0.18 92 1011.7
20260906015800 25 276 0.0 0.0 0.00 0.18 0.18 92 1011.6
20260906015600 25 276 0.0 0.0 0.00 0.18 0.18 92 1011.6
20260906015400 25 276 0.0 0.0 0.00 0.18 0.18 93 1011.6
20260906015200 25 276 0.0 0.0 0.00 0.18 0.18 93 1011.5
20260906015002 25 276 0.0 0.0 0.00 0.18 0.18 93 1011.6
20260906014800 25 276 0.0 0.0 0.00 0.18 0.18 93 1011.5
20260906014600 25 276 0.0 0.0 0.00 0.18 0.18 93 1011.5
20260906014400 25 275 0.0 0.0 0.00 0.18 0.18 93 1011.5
20260906014201 25 275 0.0 0.0 0.00 0.18 0.18 93 1011.4
20260906014000 25 275 0.0 0.0 0.00 0.18 0.18 93 1011.4
20260906013800 25 275 0.0 0.0 0.00 0.18 0.18 92 1011.4
20260906013600 25 275 0.0 0.0 0.00 0.18 0.18 93 1011.3
20260906013400 25 275 0.0 0.0 0.00 0.18 0.18 93 1011.2
20260906013200 26 275 0.0 0.0 0.00 0.18 0.18 93 1011.2
20260906013000 26 275 0.0 0.0 0.00 0.18 0.18 93 1011.2
20260906012800 26 275 0.0 0.0 0.00 0.18 0.18 93 1011.2
20260906012600 26 275 0.0 0.0 0.00 0.18 0.18 93 1011.2
20260906012400 26 275 0.0 0.0 0.00 0.18 0.18 93 1011.2
20260906012200 26 275 0.0 0.0 0.00 0.18 0.18 93 1011.2
20260906012001 26 275 0.0 0.0 0.00 0.18 0.18 93 1011.2
20260906011800 26 275 0.0 0.0 0.00 0.18 0.18 93 1011.1
20260906011600 26 275 0.0 0.0 0.00 0.18 0.18 93 1011.2
20260906011400 26 275 0.0 0.0 0.00 0.18 0.18 92 1011.1
20260906011200 26 275 0.0 0.0 0.00 0.18 0.18 92 1011.1
20260906011000 26 275 0.0 0.0 0.00 0.18 0.18 92 1011.1
20260906010800 26 311 0.0 0.0 0.00 0.18 0.18 92 1011.0
20260906010600 26 311 0.0 0.0 0.00 0.18 0.18 92 1011.0
20260906010400 26 311 0.0 0.0 0.00 0.18 0.18 91 1010.9
20260906010003 26 311 0.0 0.0 0.00 0.18 0.18 91 1010.9
20260906005801 26 311 0.0 0.0 0.00 0.18 0.18 91 1010.9
20260906005600 26 311 0.0 0.0 0.00 0.18 0.18 90 1010.8
20260906005401 26 311 0.0 0.0 0.00 0.18 0.18 90 1010.8
20260906005200 27 283 0.0 0.0 0.00 0.18 0.18 90 1010.8
20260906005001 27 283 0.0 0.0 0.00 0.18 0.18 90 1010.8
20260906004800 27 283 0.0 0.0 0.00 0.18 0.18 90 1010.8
20260906004600 27 283 0.0 0.0 0.00 0.18 0.18 90 1010.7
20260906004400 27 283 0.0 0.0 0.00 0.18 0.18 89 1010.9
20260906004200 27 283 0.0 0.0 0.00 0.18 0.18 89 1010.8
20260906004000 27 283 0.0 0.0 0.00 0.18 0.18 89 1010.9
20260906003800 27 283 0.0 0.0 0.00 0.18 0.18 89 1010.9
20260906003600 27 283 0.0 0.0 0.00 0.18 0.18 89 1011.0
20260906003400 27 283 0.0 0.0 0.00 0.18 0.18 89 1011.0
20260906003200 27 283 0.0 0.0 0.00 0.18 0.18 89 1011.0
20260906003000 27 283 0.0 0.0 0.00 0.18 0.18 89 1011.0
20260906002800 27 283 0.0 0.0 0.00 0.18 0.18 89 1011.1
20260906002600 27 283 0.0 0.0 0.00 0.18 0.18 89 1011.1
20260906002400 28 283 0.0 0.0 0.00 0.18 0.18 89 1011.1
20260906002200 28 283 0.0 0.0 0.00 0.18 0.18 88 1011.2
20260906002000 28 283 0.0 0.0 0.00 0.18 0.18 88 1011.3
20260906001800 28 283 0.0 0.0 0.00 0.18 0.18 88 1011.3
20260906001600 28 283 0.0 0.0 0.00 0.18 0.18 87 1011.3
20260906001400 28 283 0.0 0.0 0.00 0.18 0.18 87 1011.3
20260906001000 28 283 0.0 0.0 0.00 0.18 0.18 87 1011.5
20260906000800 28 283 0.0 0.0 0.00 0.18 0.18 87 1011.5
20260906000600 28 283 0.0 0.0 0.00 0.18 0.18 87 1011.5
20260906000400 28 283 0.0 0.0 0.00 0.18 0.18 87 1011.5
20260906000003 28 283 0.0 0.0 0.00 0.18 0.18 86 1011.6
20260905235801 28 283 0.0 0.0 0.00 0.18 0.18 85 1011.5
20260905235601 28 283 0.0 0.0 0.00 0.18 0.18 85 1011.4
20260905235401 28 283 0.0 0.0 0.00 0.18 0.18 85 1011.5
20260905235200 28 283 0.0 0.0 0.00 0.18 0.18 85 1011.5
20260905234800 28 283 0.0 0.0 0.00 0.18 0.18 85 1011.5
20260905234603 28 283 0.0 0.0 0.00 0.18 0.18 85 1011.4
20260905234400 28 283 0.0 0.0 0.00 0.18 0.18 85 1011.5
20260905234201 28 283 0.0 0.0 0.00 0.18 0.18 84 1011.4
20260905234000 28 283 0.0 0.0 0.00 0.18 0.18 84 1011.5
20260905233600 29 283 0.0 0.0 0.00 0.18 0.18 84 1011.5
20260905233400 29 283 0.0 0.0 0.00 0.18 0.18 84 1011.5
20260905233200 29 283 0.0 0.0 0.00 0.18 0.18 83 1011.5
20260905233001 29 283 0.0 0.0 0.00 0.18 0.18 83 1011.6
20260905232800 29 283 0.0 0.0 0.00 0.18 0.18 83 1011.6
20260905232600 29 283 0.0 0.0 0.00 0.18 0.18 83 1011.6
20260905232400 29 283 0.0 0.0 0.00 0.18 0.18 82 1011.6
20260905232201 29 283 0.0 0.0 0.00 0.18 0.18 82 1011.6
20260905232000 29 283 0.0 0.0 0.00 0.18 0.18 82 1011.5
20260905231800 30 283 0.0 0.0 0.00 0.18 0.18 82 1011.5
20260905231400 30 283 0.0 0.0 0.00 0.18 0.18 80 1011.5
20260905231200 30 283 0.0 0.0 0.00 0.18 0.18 80 1011.5
20260905231001 30 283 0.0 0.0 0.00 0.18 0.18 79 1011.3
20260905230800 30 283 0.0 0.0 0.00 0.18 0.18 79 1011.3
20260905230601 30 283 0.0 0.0 0.00 0.18 0.18 79 1011.2
20260905230400 30 283 0.0 0.0 0.00 0.18 0.18 78 1011.2
20260905230201 30 283 0.0 0.0 0.00 0.18 0.18 78 1011.2
20260905230003 30 283 0.0 0.0 0.00 0.18 0.18 76 1011.2
20260905225800 30 283 0.0 0.0 0.00 0.18 0.18 76 1011.1
20260905225600 30 283 0.0 0.0 0.00 0.18 0.18 76 1011.1
20260905225400 30 283 0.0 0.0 0.00 0.18 0.18 76 1011.1
20260905225200 31 283 0.0 0.0 0.00 0.18 0.18 75 1011.1
20260905225000 31 283 0.0 0.0 0.00 0.18 0.18 74 1011.1
20260905224800 31 283 0.0 0.0 0.00 0.18 0.18 74 1011.1
20260905224600 31 283 0.0 0.0 0.00 0.18 0.18 74 1011.1
20260905224400 31 283 0.0 0.0 0.00 0.18 0.18 73 1011.2
20260905224200 31 283 0.0 0.0 0.00 0.18 0.18 72 1011.2
20260905223800 31 283 0.0 0.0 0.00 0.18 0.18 72 1011.1
20260905223602 31 283 0.0 0.0 0.00 0.18 0.18 71 1011.1
20260905223400 31 283 0.0 0.0 0.00 0.18 0.18 70 1011.0
20260905223200 32 283 0.0 0.0 0.00 0.18 0.18 69 1011.0
20260905223000 32 283 0.0 0.0 0.00 0.18 0.18 69 1010.9
20260905222801 32 297 0.0 0.0 0.00 0.18 0.18 68 1011.0
20260905222600 32 297 0.0 0.0 0.00 0.18 0.18 66 1011.0
20260905222401 33 297 0.0 0.0 0.00 0.18 0.18 65 1011.0
20260905222001 33 325 0.0 0.0 0.00 0.18 0.18 65 1011.1
20260905221759 33 271 0.0 0.0 0.00 0.18 0.18 63 1011.1
20260905221601 33 271 0.0 0.0 0.00 0.18 0.18 64 1011.1
20260905221400 33 271 0.0 0.0 0.00 0.18 0.18 62 1011.1
20260905221201 34 270 0.0 0.0 0.00 0.18 0.18 62 1011.0
20260905221000 34 269 0.0 1.6 0.00 0.18 0.18 64 1011.0
20260905220801 34 269 0.0 1.6 0.00 0.18 0.18 61 1011.0
20260905220600 34 263 0.0 1.6 0.00 0.18 0.18 62 1011.0
20260905220200 34 247 0.0 1.6 0.00 0.18 0.18 61 1011.0
20260905220004 34 248 0.0 1.6 0.00 0.18 0.18 62 1011.0
20260905215759 34 247 1.6 3.2 0.00 0.18 0.18 62 1011.1
20260905215559 34 247 1.6 8.0 0.00 0.18 0.18 60 1011.1
20260905215359 34 247 1.6 8.0 0.00 0.18 0.18 61 1011.1
20260905215200 34 283 1.6 8.0 0.00 0.18 0.18 62 1011.1
20260905214959 34 328 1.6 8.0 0.00 0.18 0.18 59 1011.2
20260905214800 34 7 1.6 8.0 0.00 0.18 0.18 59 1011.3
20260905214559 34 237 1.6 4.8 0.00 0.18 0.18 59 1011.3
20260905214359 34 207 1.6 4.8 0.00 0.18 0.18 58 1011.3
20260905214159 35 252 1.6 4.8 0.00 0.18 0.18 58 1011.2
20260905213759 34 20 3.2 8.0 0.00 0.18 0.18 59 1011.2
20260905213559 34 51 3.2 8.0 0.00 0.18 0.18 60 1011.2
20260905213359 34 264 3.2 8.0 0.00 0.18 0.18 58 1011.3
20260905213201 34 257 3.2 8.0 0.00 0.18 0.18 59 1011.3
20260905212959 34 28 3.2 9.7 0.00 0.18 0.18 58 1011.2
20260905212559 34 271 3.2 9.7 0.00 0.18 0.18 58 1011.2
20260905212359 34 3 4.8 9.7 0.00 0.18 0.18 59 1011.1
20260905211959 34 316 4.8 14.5 0.00 0.18 0.18 59 1011.2
20260905211759 34 6 4.8 14.5 0.00 0.18 0.18 58 1011.2
20260905211359 34 27 4.8 14.5 0.00 0.18 0.18 58 1011.1
20260905211159 34 77 3.2 12.9 0.00 0.18 0.18 58 1011.2
20260905210959 35 271 3.2 12.9 0.00 0.18 0.18 57 1011.3
20260905210759 35 346 3.2 8.0 0.00 0.18 0.18 58 1011.3
20260905210559 35 293 3.2 8.0 0.00 0.18 0.18 58 1011.3
20260905210359 35 295 1.6 8.0 0.00 0.18 0.18 57 1011.2
20260905210159 35 272 3.2 8.0 0.00 0.18 0.18 58 1011.2
20260905210001 35 340 3.2 11.3 0.00 0.18 0.18 57 1011.3
20260905205800 35 49 3.2 11.3 0.00 0.18 0.18 59 1011.3
20260905205359 35 300 3.2 11.3 0.00 0.18 0.18 58 1011.3
20260905205000 35 55 1.6 8.0 0.00 0.18 0.18 57 1011.4
20260905204759 35 45 1.6 8.0 0.00 0.18 0.18 59 1011.4
20260905204600 35 201 1.6 9.7 0.00 0.18 0.18 58 1011.4
20260905204359 35 12 3.2 9.7 0.00 0.18 0.18 57 1011.4
20260905204159 35 261 3.2 9.7 0.00 0.18 0.18 58 1011.5
20260905203800 34 165 3.2 9.7 0.00 0.18 0.18 59 1011.4
20260905203559 34 30 3.2 8.0 0.00 0.18 0.18 58 1011.5
20260905203359 34 283 3.2 8.0 0.00 0.18 0.18 58 1011.6
20260905203159 34 30 3.2 8.0 0.00 0.18 0.18 57 1011.6
20260905202959 34 293 3.2 8.0 0.00 0.18 0.18 58 1011.6
20260905202759 35 265 3.2 9.7 0.00 0.18 0.18 62 1011.7
20260905202559 34 297 3.2 12.9 0.00 0.18 0.18 58 1011.7
20260905202359 34 299 3.2 12.9 0.00 0.18 0.18 58 1011.7
20260905202159 34 317 3.2 12.9 0.00 0.18 0.18 58 1011.7
20260905201759 34 213 3.2 9.7 0.00 0.18 0.18 60 1011.8
20260905201559 34 226 3.2 9.7 0.00 0.18 0.18 58 1011.8
20260905201359 34 275 3.2 9.7 0.00 0.18 0.18 59 1011.9
20260905201159 34 311 3.2 9.7 0.00 0.18 0.18 59 1011.9
20260905200959 34 50 4.8 11.3 0.00 0.18 0.18 58 1011.9
20260905200759 34 360 4.8 11.3 0.00 0.18 0.18 58 1011.8
20260905200559 34 13 3.2 11.3 0.00 0.18 0.18 58 1011.9
20260905200359 34 327 3.2 11.3 0.00 0.18 0.18 58 1011.9
20260905200159 34 301 3.2 9.7 0.00 0.18 0.18 58 1011.9
20260905200002 35 50 1.6 8.0 0.00 0.18 0.18 61 1011.9
20260905195559 34 242 3.2 9.7 0.00 0.18 0.18 59 1012.0
20260905195400 34 241 3.2 9.7 0.00 0.18 0.18 59 1012.0
20260905195000 34 194 3.2 9.7 0.00 0.18 0.18 59 1012.1
20260905194759 34 201 3.2 9.7 0.00 0.18 0.18 58 1012.1
20260905194359 34 150 3.2 6.4 0.00 0.18 0.18 60 1012.1
20260905194200 34 44 3.2 6.4 0.00 0.18 0.18 58 1012.2
20260905194000 34 349 3.2 8.0 0.00 0.18 0.18 61 1012.2
20260905193759 34 291 3.2 8.0 0.00 0.18 0.18 64 1012.2
20260905193559 34 246 3.2 8.0 0.00 0.18 0.18 62 1012.3
20260905193359 34 147 3.2 8.0 0.00 0.18 0.18 59 1012.3
20260905193159 34 158 3.2 6.4 0.00 0.18 0.18 60 1012.4
20260905192959 34 126 3.2 11.3 0.00 0.18 0.18 60 1012.4
20260905192559 33 154 3.2 11.3 0.00 0.18 0.18 61 1012.5
20260905192359 33 139 3.2 11.3 0.00 0.18 0.18 61 1012.6
20260905192159 33 250 3.2 11.3 0.00 0.18 0.18 61 1012.6
20260905191759 33 312 3.2 8.0 0.00 0.18 0.18 62 1012.6
20260905191559 33 293 1.6 8.0 0.00 0.18 0.18 60 1012.6
20260905191159 33 343 1.6 6.4 0.00 0.18 0.18 60 1012.7
20260905190959 33 13 1.6 8.0 0.00 0.18 0.18 59 1012.7
20260905190759 33 196 1.6 8.0 0.00 0.18 0.18 62 1012.7
20260905190600 33 257 3.2 8.0 0.00 0.18 0.18 59 1012.7
20260905190359 33 150 3.2 8.0 0.00 0.18 0.18 60 1012.8
20260905190200 33 155 3.2 8.0 0.00 0.18 0.18 60 1012.8
20260905190002 33 203 3.2 8.0 0.00 0.18 0.18 61 1012.8
20260905185800 33 89 3.2 8.0 0.00 0.18 0.18 61 1012.8
20260905185559 33 311 3.2 8.0 0.00 0.18 0.18 62 1012.8
20260905185359 33 328 3.2 8.0 0.00 0.18 0.18 62 1012.8
20260905185000 33 307 3.2 9.7 0.00 0.18 0.18 61 1012.9
20260905184759 33 304 3.2 9.7 0.00 0.18 0.18 62 1013.0
20260905184359 33 271 3.2 9.7 0.00 0.18 0.18 60 1013.1
20260905183959 33 242 4.8 9.7 0.00 0.18 0.18 64 1013.2
20260905183801 33 236 4.8 9.7 0.00 0.18 0.18 63 1013.2
20260905183559 33 168 4.8 9.7 0.00 0.18 0.18 62 1013.2
20260905183359 33 219 4.8 9.7 0.00 0.18 0.18 60 1013.2
20260905183201 33 218 3.2 9.7 0.00 0.18 0.18 61 1013.2
20260905182959 33 231 4.8 9.7 0.00 0.18 0.18 64 1013.2
20260905182800 33 77 4.8 9.7 0.00 0.18 0.18 65 1013.2
20260905182600 33 46 4.8 9.7 0.00 0.18 0.18 61 1013.2
20260905182400 33 127 4.8 9.7 0.00 0.18 0.18 60 1013.2
20260905182202 33 121 4.8 9.7 0.00 0.18 0.18 60 1013.3
20260905181959 33 181 3.2 9.7 0.00 0.18 0.18 62 1013.4
20260905181759 33 148 3.2 9.7 0.00 0.18 0.18 62 1013.4
20260905181559 32 37 3.2 8.0 0.00 0.18 0.18 60 1013.4
20260905181359 33 30 1.6 8.0 0.00 0.18 0.18 60 1013.5
20260905181159 32 205 1.6 6.4 0.00 0.18 0.18 62 1013.4
20260905180759 32 239 1.6 8.0 0.00 0.18 0.18 61 1013.5
20260905180159 32 332 4.8 9.7 0.00 0.18 0.18 61 1013.5
20260905180004 32 257 4.8 9.7 0.00 0.18 0.18 62 1013.5
20260905175800 32 278 4.8 9.7 0.00 0.18 0.18 65 1013.5
20260905175359 32 201 6.4 9.7 0.00 0.18 0.18 62 1013.5
20260905174959 32 149 6.4 17.7 0.00 0.18 0.18 64 1013.6
20260905174759 32 115 6.4 17.7 0.00 0.18 0.18 64 1013.6
20260905174401 32 136 4.8 17.7 0.00 0.18 0.18 63 1013.6
20260905174000 32 136 4.8 12.9 0.00 0.18 0.18 63 1013.7
20260905173759 31 160 6.4 12.9 0.00 0.18 0.18 64 1013.7
20260905173359 31 245 8.0 12.9 0.00 0.18 0.18 63 1013.7
20260905173200 31 137 6.4 12.9 0.00 0.18 0.18 64 1013.7
20260905172959 31 182 6.4 12.9 0.00 0.18 0.18 64 1013.7
20260905172759 31 156 6.4 12.9 0.00 0.18 0.18 64 1013.7
20260905172559 31 147 6.4 12.9 0.00 0.18 0.18 65 1013.8
20260905172359 31 153 6.4 11.3 0.00 0.18 0.18 66 1013.8
20260905172159 31 197 6.4 11.3 0.00 0.18 0.18 68 1013.8
20260905172001 31 118 6.4 9.7 0.00 0.18 0.18 65 1013.8
20260905171759 31 120 6.4 9.7 0.00 0.18 0.18 65 1013.9
20260905171559 31 124 6.4 11.3 0.00 0.18 0.18 65 1013.9
20260905171359 31 172 6.4 11.3 0.00 0.18 0.18 65 1013.9
20260905170959 31 200 6.4 12.9 0.00 0.18 0.18 64 1013.9
20260905170759 31 176 6.4 12.9 0.00 0.18 0.18 65 1013.8
20260905170559 31 255 6.4 12.9 0.00 0.18 0.18 66 1013.8
20260905170359 31 209 8.0 11.3 0.00 0.18 0.18 67 1013.8
20260905170159 31 200 8.0 14.5 0.00 0.18 0.18 67 1013.9
20260905170003 31 206 8.0 16.1 0.00 0.18 0.18 68 1013.9
20260905165759 31 215 6.4 16.1 0.00 0.18 0.18 66 1014.0
20260905165559 31 181 6.4 16.1 0.00 0.18 0.18 66 1014.0
20260905165359 31 106 6.4 16.1 0.00 0.18 0.18 67 1014.1
20260905165159 31 96 6.4 16.1 0.00 0.18 0.18 67 1014.2
20260905165001 31 150 6.4 14.5 0.00 0.18 0.18 67 1014.2
20260905164759 31 137 8.0 14.5 0.00 0.18 0.18 68 1014.3
20260905164600 31 141 8.0 14.5 0.00 0.18 0.18 66 1014.3
20260905164358 30 117 6.4 12.9 0.00 0.18 0.18 68 1014.4
20260905164200 30 180 6.4 12.9 0.00 0.18 0.18 68 1014.4
20260905163958 30 143 6.4 11.3 0.00 0.18 0.18 68 1014.4
20260905163758 30 124 6.4 11.3 0.00 0.18 0.18 68 1014.4
20260905163559 30 139 6.4 11.3 0.00 0.18 0.18 67 1014.5
20260905163358 30 125 6.4 12.9 0.00 0.18 0.18 66 1014.5
20260905163200 30 191 6.4 12.9 0.00 0.18 0.18 68 1014.6
20260905162959 30 162 4.8 12.9 0.00 0.18 0.18 70 1014.6
20260905162759 30 144 6.4 12.9 0.00 0.18 0.18 70 1014.7
20260905162558 30 115 4.8 12.9 0.00 0.18 0.18 69 1014.6
20260905162359 30 162 4.8 9.7 0.00 0.18 0.18 71 1014.6
20260905161959 30 144 6.4 14.5 0.00 0.18 0.18 71 1014.7
20260905161759 30 113 6.4 14.5 0.00 0.18 0.18 70 1014.6
20260905161159 29 132 9.7 14.5 0.00 0.18 0.18 70 1014.7
20260905160959 29 135 9.7 14.5 0.00 0.18 0.18 70 1014.8
20260905160759 29 110 8.0 17.7 0.00 0.18 0.18 70 1014.8
20260905160558 29 134 8.0 17.7 0.00 0.18 0.18 71 1014.8
20260905160359 29 195 6.4 17.7 0.00 0.18 0.18 70 1014.7
20260905160158 29 169 4.8 17.7 0.00 0.18 0.18 71 1014.7
20260905160002 29 118 4.8 17.7 0.00 0.18 0.18 73 1014.7
20260905155759 29 124 4.8 9.7 0.00 0.18 0.18 71 1014.6
20260905155559 29 113 4.8 9.7 0.00 0.18 0.18 72 1014.6
20260905155359 29 51 4.8 9.7 0.00 0.18 0.18 72 1014.6
20260905155159 29 102 4.8 11.3 0.00 0.18 0.18 72 1014.7
20260905154959 29 112 6.4 11.3 0.00 0.18 0.18 71 1014.7
20260905154759 28 134 6.4 16.1 0.00 0.18 0.18 71 1014.8
20260905154559 28 101 8.0 16.1 0.00 0.18 0.18 73 1014.8
20260905154358 28 73 8.0 16.1 0.00 0.18 0.18 73 1014.8
20260905154158 28 111 9.7 16.1 0.00 0.18 0.18 73 1014.8
20260905153959 28 92 8.0 16.1 0.00 0.18 0.18 72 1014.8
20260905153800 28 143 8.0 14.5 0.00 0.18 0.18 72 1014.8
20260905153358 28 112 6.4 14.5 0.00 0.18 0.18 74 1014.8
20260905153159 28 133 6.4 12.9 0.00 0.18 0.18 73 1014.8
20260905152959 28 154 6.4 16.1 0.00 0.18 0.18 73 1014.8
20260905152759 28 154 6.4 16.1 0.00 0.18 0.18 74 1014.9
20260905152559 28 122 6.4 16.1 0.00 0.18 0.18 74 1014.9
20260905152359 28 157 6.4 16.1 0.00 0.18 0.18 75 1014.9
20260905152159 28 134 8.0 16.1 0.00 0.18 0.18 75 1014.9
20260905151959 28 168 8.0 16.1 0.00 0.18 0.18 76 1014.9
20260905151758 28 112 8.0 16.1 0.00 0.18 0.18 75 1014.9
20260905151559 28 121 8.0 16.1 0.00 0.18 0.18 75 1015.0
20260905151358 28 93 8.0 16.1 0.00 0.18 0.18 76 1014.9
20260905151200 27 134 8.0 16.1 0.00 0.18 0.18 75 1014.8
20260905150959 27 162 6.4 12.9 0.00 0.18 0.18 75 1014.9
20260905150759 27 120 6.4 14.5 0.00 0.18 0.18 75 1014.9
20260905150559 27 115 6.4 14.5 0.00 0.18 0.18 75 1015.0
20260905150359 27 122 6.4 14.5 0.00 0.18 0.18 74 1015.0
20260905150159 27 133 6.4 14.5 0.00 0.18 0.18 75 1015.0
20260905150003 27 167 6.4 14.5 0.00 0.18 0.18 76 1015.0
20260905145759 27 124 6.4 14.5 0.00 0.18 0.18 75 1015.1
20260905145559 27 45 8.0 16.1 0.00 0.18 0.18 75 1015.0
20260905145358 27 101 8.0 22.5 0.00 0.18 0.18 74 1015.1
20260905145158 27 98 8.0 22.5 0.00 0.18 0.18 75 1015.1
20260905144959 27 126 8.0 22.5 0.00 0.18 0.18 78 1015.1
20260905144759 27 101 8.0 22.5 0.00 0.18 0.18 76 1015.1
20260905144558 27 111 6.4 16.1 0.00 0.18 0.18 78 1015.2
20260905144358 27 118 6.4 14.5 0.00 0.18 0.18 79 1015.3
20260905143958 26 86 4.8 9.7 0.00 0.18 0.18 81 1015.3
20260905143559 26 80 4.8 11.3 0.00 0.18 0.18 84 1015.2
20260905143400 26 111 4.8 12.9 0.00 0.18 0.18 84 1015.1
20260905143158 26 101 6.4 16.1 0.00 0.18 0.18 85 1015.2
20260905142959 26 82 6.4 16.1 0.00 0.18 0.18 84 1015.2
20260905142759 26 99 6.4 16.1 0.00 0.18 0.18 85 1015.2
20260905142559 26 83 6.4 16.1 0.00 0.18 0.18 85 1015.1
20260905142358 26 101 6.4 16.1 0.00 0.18 0.18 86 1015.1
20260905142159 25 112 6.4 16.1 0.00 0.18 0.18 86 1015.1
20260905141958 25 105 8.0 16.1 0.00 0.18 0.18 87 1015.1
20260905141759 25 107 6.4 16.1 0.00 0.18 0.18 86 1015.1
20260905141559 25 101 6.4 16.1 0.00 0.18 0.18 87 1015.2
20260905141359 25 105 6.4 16.1 0.00 0.18 0.18 88 1015.2
20260905141200 25 40 6.4 16.1 0.00 0.18 0.18 87 1015.3
20260905140959 25 47 6.4 16.1 0.00 0.18 0.18 87 1015.3
20260905140759 25 47 6.4 17.7 0.00 0.18 0.18 88 1015.3
20260905140559 25 53 6.4 17.7 0.00 0.18 0.18 88 1015.3
20260905140358 25 63 8.0 19.3 0.00 0.18 0.18 88 1015.3
20260905140159 25 98 8.0 19.3 0.00 0.18 0.18 89 1015.4
20260905140001 25 25 8.0 19.3 0.00 0.18 0.18 89 1015.3
20260905135758 25 106 6.4 19.3 0.00 0.18 0.18 89 1015.3
20260905135559 25 119 6.4 19.3 0.00 0.18 0.18 90 1015.4
20260905135158 25 58 8.0 14.5 0.00 0.18 0.18 91 1015.4
20260905134800 25 110 8.0 20.9 0.00 0.18 0.18 91 1015.4
20260905134359 25 49 8.0 22.5 0.03 0.18 0.18 91 1015.4
20260905134158 25 58 8.0 22.5 0.05 0.18 0.18 92 1015.3
20260905134001 25 28 8.0 22.5 0.05 0.18 0.18 94 1015.4
20260905133759 24 96 9.7 22.5 0.08 0.18 0.18 94 1015.4
20260905133559 24 49 9.7 22.5 0.10 0.18 0.18 93 1015.5
20260905133358 24 58 9.7 22.5 0.18 0.18 0.18 93 1015.5
20260905133159 24 44 11.3 20.9 0.18 0.18 0.18 95 1015.5
20260905132959 24 44 11.3 24.1 0.18 0.18 0.18 95 1015.5
20260905132359 23 43 9.7 24.1 0.18 0.18 0.18 96 1015.5
20260905132159 23 40 9.7 22.5 0.18 0.18 0.18 97 1015.5
20260905131959 23 63 8.0 14.5 0.18 0.18 0.18 97 1015.4
20260905131758 23 60 8.0 14.5 0.18 0.18 0.18 97 1015.4
20260905131600 23 72 8.0 14.5 0.18 0.18 0.18 98 1015.4
20260905131359 23 48 9.7 17.7 0.18 0.18 0.18 98 1015.4
20260905131159 23 51 11.3 20.9 0.18 0.18 0.18 98 1015.4
20260905130959 23 60 11.3 24.1 0.18 0.18 0.18 98 1015.3
20260905130558 23 49 11.3 24.1 0.18 0.18 0.18 99 1015.4
20260905130400 23 49 9.7 24.1 0.18 0.18 0.18 99 1015.4
20260905130158 23 48 8.0 24.1 0.18 0.18 0.18 99 1015.3
20260905130003 23 41 6.4 14.5 0.18 0.18 0.18 99 1015.2
20260905125759 23 34 6.4 9.7 0.18 0.18 0.18 99 1014.8
20260905125559 23 10 6.4 9.7 0.18 0.18 0.18 99 1014.7
20260905125358 23 24 4.8 9.7 0.18 0.18 0.18 99 1014.5
20260905125159 23 39 3.2 8.0 0.18 0.18 0.18 99 1014.5
20260905124959 24 39 1.6 6.4 0.18 0.18 0.18 99 1014.5
20260905124759 24 39 1.6 6.4 0.18 0.18 0.18 99 1014.7
20260905124400 24 99 1.6 3.2 0.13 0.13 0.13 98 1015.0
20260905124158 24 82 1.6 3.2 0.13 0.13 0.13 98 1015.0
20260905123759 24 205 1.6 3.2 0.08 0.08 0.08 99 1015.3
20260905123358 23 316 1.6 6.4 0.00 0.00 0.00 99 1015.5
20260905123201 23 316 1.6 6.4 0.00 0.00 0.00 99 1015.6
20260905122959 23 328 1.6 6.4 0.00 0.00 0.00 99 1015.5
20260905122759 23 307 1.6 6.4 0.00 0.00 0.00 99 1015.4
20260905122558 23 279 0.0 6.4 0.00 0.00 0.00 100 1015.1
20260905122359 23 88 0.0 0.0 0.00 0.00 0.00 100 1014.8
20260905121959 23 88 0.0 0.0 0.00 0.00 0.00 100 1014.8
20260905121758 23 88 0.0 1.6 0.00 0.00 0.00 100 1014.7
20260905121359 23 88 0.0 3.2 0.00 0.00 0.00 100 1014.7
20260905121159 22 88 0.0 3.2 0.00 0.00 0.00 100 1014.7
20260905120959 22 355 0.0 3.2 0.00 0.00 0.00 100 1014.8
20260905120759 22 357 0.0 3.2 0.00 0.00 0.00 100 1014.7
20260905120359 22 273 1.6 3.2 0.00 0.00 0.00 100 1014.8
20260905120158 22 273 1.6 4.8 0.00 0.00 0.00 100 1014.8
20260905120004 22 273 1.6 4.8 0.00 0.00 0.00 100 1014.7
20260905115759 22 273 1.6 4.8 0.00 0.00 0.00 100 1014.6
20260905115559 22 273 3.2 4.8 0.00 0.00 0.00 100 1014.7
20260905115159 22 269 3.2 6.4 0.00 0.00 0.00 100 1014.7
20260905114959 22 264 1.6 6.4 0.00 0.00 0.00 100 1014.5
20260905114759 22 295 1.6 6.4 0.00 0.00 0.00 100 1014.5
20260905114559 22 37 1.6 6.4 0.00 0.00 0.00 100 1014.5
20260905114359 22 58 0.0 6.4 0.00 0.00 0.00 100 1014.3
20260905114000 22 258 0.0 0.0 0.00 0.00 0.00 100 1014.2
20260905113759 22 258 0.0 0.0 0.00 0.00 0.00 99 1014.2
20260905113559 22 257 0.0 0.0 0.00 0.00 0.00 99 1014.2
20260905113358 22 258 0.0 0.0 0.00 0.00 0.00 99 1014.2
20260905113201 22 258 0.0 0.0 0.00 0.00 0.00 99 1014.2
20260905112959 22 258 0.0 0.0 0.00 0.00 0.00 100 1014.1
20260905112558 22 258 0.0 0.0 0.00 0.00 0.00 99 1014.1
20260905112000 22 258 0.0 0.0 0.00 0.00 0.00 100 1013.9
20260905111759 22 258 0.0 0.0 0.00 0.00 0.00 100 1013.9
20260905111600 22 258 0.0 0.0 0.00 0.00 0.00 100 1013.8
20260905111159 22 258 0.0 0.0 0.00 0.00 0.00 100 1013.7
20260905110959 22 258 0.0 0.0 0.00 0.00 0.00 100 1013.7
20260905110759 22 258 0.0 0.0 0.00 0.00 0.00 100 1013.7
20260905110558 22 258 0.0 0.0 0.00 0.00 0.00 99 1013.7
20260905110159 22 258 0.0 0.0 0.00 0.00 0.00 99 1013.7
20260905105758 22 258 0.0 0.0 0.00 0.00 0.00 99 1013.6
20260905105559 22 258 0.0 0.0 0.00 0.00 0.00 100 1013.5
20260905105358 22 258 0.0 0.0 0.00 0.00 0.00 100 1013.5
20260905105159 22 258 0.0 0.0 0.00 0.00 0.00 100 1013.5
20260905104958 22 258 0.0 0.0 0.00 0.00 0.00 100 1013.4
20260905104800 22 258 0.0 0.0 0.00 0.00 0.00 99 1013.4
20260905104558 22 258 0.0 0.0 0.00 0.00 0.00 99 1013.4
20260905104158 22 258 0.0 0.0 0.00 0.00 0.00 99 1013.5
20260905103558 22 258 0.0 0.0 0.00 0.00 0.00 99 1013.4
20260905103358 22 258 0.0 0.0 0.00 0.00 0.00 99 1013.3
20260905103158 22 258 0.0 0.0 0.00 0.00 0.00 99 1013.3
20260905102959 22 258 0.0 0.0 0.00 0.00 0.00 100 1013.3
20260905102758 22 258 0.0 0.0 0.00 0.00 0.00 100 1013.4
20260905102558 22 258 0.0 0.0 0.00 0.00 0.00 100 1013.4
20260905102359 22 258 0.0 0.0 0.00 0.00 0.00 100 1013.4
20260905102158 22 258 0.0 0.0 0.00 0.00 0.00 100 1013.4
20260905101959 22 258 0.0 0.0 0.00 0.00 0.00 100 1013.4
20260905101559 22 258 0.0 0.0 0.00 0.00 0.00 99 1013.5
20260905101358 22 258 0.0 0.0 0.00 0.00 0.00 99 1013.5
20260905101200 22 258 0.0 0.0 0.00 0.00 0.00 99 1013.5
20260905100958 22 258 0.0 0.0 0.00 0.00 0.00 99 1013.5
20260905100558 22 258 0.0 0.0 0.00 0.00 0.00 99 1013.5